Location: Unspecified
(44.2709°N, 0.0000°E)
Time: 00:23:43
(UTC+00:00)

ARGOS - Visible Passes

Search period start: 04 April 2026 00:00
Search period end: 14 April 2026 00:00
Orbit: 819 x 832 km, 98.5° (Epoch: 29 March)

Date Brightness Start Highest point End Pass type
(mag) Time Alt. Az. Time Alt. Az. Time Alt. Az.
4 Apr 5.7 02:17:52 10° ENE 02:20:36 14° E 02:23:20 10° ESE visible
4 Apr 3.1 03:56:01 10° NNE 04:01:28 81° WNW 04:06:08 14° SSW visible
5 Apr 3.4 03:36:49 10° NNE 03:42:15 70° ESE 03:46:49 15° S visible
6 Apr 4.0 03:17:44 10° NNE 03:22:59 48° E 03:27:29 14° S visible
6 Apr 4.3 04:58:31 10° N 05:02:54 26° WNW 05:07:15 10° WSW visible
7 Apr 4.6 02:58:48 10° NNE 03:03:39 33° E 03:08:10 11° SSE visible
7 Apr 3.8 04:38:57 10° N 04:43:51 36° WNW 04:48:43 10° SW visible
8 Apr 5.2 02:40:04 10° NE 02:44:16 23° E 02:48:26 10° SE visible
8 Apr 3.4 04:19:31 10° N 04:24:45 51° WNW 04:29:57 10° SW visible
9 Apr 5.7 02:21:42 10° NE 02:24:49 15° E 02:27:55 10° SE visible
9 Apr 3.1 04:00:12 10° N 04:05:37 74° WNW 04:10:58 10° SSW visible
10 Apr 3.3 03:40:58 10° NNE 03:46:24 77° ESE 03:51:38 11° S visible
11 Apr 3.8 03:21:51 10° NNE 03:27:08 53° E 03:32:18 10° S visible
12 Apr 4.5 03:02:51 10° NNE 03:07:50 36° E 03:12:44 10° SSE visible
12 Apr 4.0 04:43:11 10° N 04:47:58 33° WNW 04:52:42 10° SW visible
13 Apr 5.1 02:44:04 10° NE 02:48:27 25° E 02:52:48 10° SSE visible
13 Apr 3.5 04:23:43 10° N 04:28:53 47° WNW 04:33:59 10° SW visible
